CLASSIFICA

19^ GIRO DEGLI ARCHI

16-06-2013
DIVISIONI:
10MIGLIA     CLASSIFICA:   ASSOLUTA    FIDAL     LIBERI    
CATEGORIE:   TUTTE    |   LIB   |   MF35   |   MF40   |   MF45   |   MF50   |   MM35   |   MM40   |   MM45   |   MM50   |   MM55   |   MM60   |   MM65   |   MM70   |   MM80   |   PM   |   SM   |   TM  
FILTRO:
  Atleta      Team        Pulisci       Atleti classificati 10MIGLIA: 189  

Cliccare sulle colonne per cambiare ordinamento Pagina:   | 1 | | 2 | | 3 | | 4 |
Azioni Pos. M/F Cat. P.Cat. Pett Naz Atleta Squadra Tempo
11SM1144MINERVA FRANCESCO BA711 BIO AMBRA NEW AGE00.52.16
22SM21SARDELLA VITO MC007 ATLETICA RECANATI00.53.49
33SM351DEDONATO GIUSEPPE BA096 A.S. ATL SPRINT BARLETTA00.56.27
44TM1158ROTOLO DOMENICO BO138 POL. PORTA SARAGOZZA00.57.05
55MM3512MELE GIUSEPPE BA005 AMATORI ATL. ACQUAVIVA00.58.44
66TM214DI MASI SEBASTIANO BA011 A.S. ATLETICA CASTELLANA00.59.17
77MM401145MINERVA VITO BA711 BIO AMBRA NEW AGE00.59.32
88MM451159MINOIA FILOMENO BR113 ATLETICA CASALINI01.00.00
99MM35256BACCARO DOMENICO BA535 A.S. ATLETICA POLIGNANO01.00.31
1010MM40264LOIZZI MICHELE BA535 A.S. ATLETICA POLIGNANO01.00.33
1111MM35349NOTARANGELO DONATO BA058 ATLETICA MONOPOLI01.01.00
1212TM3115CALO' MARCO BA599 RUNNING PEOPLE NOICATTARO01.01.09
1313MM35452CAMPOBASSO VITO BA097 SPORT CENTER A.S.D.01.01.47
1414MM45250IACOVAZZI FRANCESCO BA058 ATLETICA MONOPOLI01.02.42
1515MM355142NITTI BA711 BIO AMBRA NEW AGE01.02.49
1616MM453134GENTILE GERMANO BA700 A.S.D. NADIR ON THE ROAD - PUT01.03.36
1717MM35674TEOFILO GIUSEPPE BA535 A.S. ATLETICA POLIGNANO01.03.39
1818MM501137AIELLO GAETANO BA711 BIO AMBRA NEW AGE01.03.39
1919MM40355ABBATEPAOLO VITO BA535 A.S. ATLETICA POLIGNANO01.03.46
2020MM357129MELE ANTONIO BA599 RUNNING PEOPLE NOICATTARO01.03.57
2121TM493LORUSSO MICHELE BA550 AVIS IN CORSA CONVERSANO01.04.10
2222MM358163COFANO GIUSEPPE BR146 A.S.D. ATLETICA PEZZE DI GRECO01.04.14
2323MM45413DE MICHELE PIETRO BA011 A.S. ATLETICA CASTELLANA01.04.18
2424TM5161CERVELLERA DAVIDE BR131 A.S. ATLETICA LATIANO01.04.32
2525MM45526DALENA DOMENICO ASD AMATORI PUTIGNANO01.04.37
2626LIB1185GRAVINA DAVIDE PUGLIAVVENTURA01.04.39
2727MM404112CINIERI NICOLA BA553 ATLETICA ADELFIA01.04.52
2828MM4564DINIELLI PIETRO BA005 AMATORI ATL. ACQUAVIVA01.05.14
2929MM502123SACCENTE LUIGI BA586 A.S.D. ASOPICO RUNNING BARI01.05.14
3030MM5516BOTTALICO COSIMO BA007 CUS BARI01.05.54
3131MM45797MURAGLIA DOMENICO BA550 AVIS IN CORSA CONVERSANO01.05.56
3232MM405122MINERVINI GIUSEPPE BA586 A.S.D. ASOPICO RUNNING BARI01.05.57
3333MM4063MELE DAVID BA005 AMATORI ATL. ACQUAVIVA01.06.08
3434LIB2198MORGESE LUIGI PUGLIAVVENTURA01.06.33
3535MM407132DELFINE ROBERTO BA700 A.S.D. NADIR ON THE ROAD - PUT01.06.38
3636MM50369SAMELE NICOLA BA535 A.S. ATLETICA POLIGNANO01.06.42
3737MM45862DI MOLA GIUSEPPE BA535 A.S. ATLETICA POLIGNANO01.06.50
3838TM654ABBRESCIA MATTEO BA505 A.S. QUELLI DELLA PINETA01.07.04
3939MM50484GENEROSO DOMENICO BA550 AVIS IN CORSA CONVERSANO01.07.23
4040MM505162MILETI VITO BR141 POLISPORT CICLO CLUB FASANO01.07.31
4141MM359119CIOCE FRANCESCO BA581 A.S.D. ATLETICA BITRITTO01.07.33
4242LIB3209GENCO GIANBATTISTA PUGLIAVVENTURA01.07.39
4343MM408100PALUMBO MICHELE BA550 AVIS IN CORSA CONVERSANO01.08.09
4444MM459124VENTURO DONATO BA586 A.S.D. ASOPICO RUNNING BARI01.08.53
4545MM40978MARANGI GRASSI GIUSEPPE BA546 POD. VALLE D'ITRIA LOCOROTONDO01.08.54
4646TM7111SALVEMINI RUGGIERO BA719 RUNNERS DEL LEVANTE01.09.21
4747PM165LOPEDOTE FRANCESCO BA535 A.S. ATLETICA POLIGNANO01.09.39
4848MM4010120CATARINELLA MAURO BA581 A.S.D. ATLETICA BITRITTO01.09.58
4949MM401189LARUCCIA MICHELE BA550 AVIS IN CORSA CONVERSANO01.10.04
5050MM4510105SAVINO VITANTONIO BA550 AVIS IN CORSA CONVERSANO01.10.13
5151MM401217CARELLA GIUSEPPE BA011 A.S. ATLETICA CASTELLANA01.10.22
5252TM8165CARDONE LEONARDO BR146 A.S.D. ATLETICA PEZZE DI GRECO01.10.28
5353MF401151PUGLIESE CATERINA ACD SPES ALBEROBELLO01.10.29
5454MM401328CHIAPPERINO CRISTOFORO ASD AMATORI PUTIGNANO01.10.36
5555MM552125TRIZIO DONATO BA592 BARLETTA SPORTIVA01.10.59
5656MM451198NARDOMARINO ANGELO BA550 AVIS IN CORSA CONVERSANO01.11.03
5757MM60181DANIELE MARINO BA550 AVIS IN CORSA CONVERSANO01.11.03
5858MM4014140BUONO ANTONIO BA711 BIO AMBRA NEW AGE01.11.07
5959MM4015121DE PALMA MARCANTONIO BA586 A.S.D. ASOPICO RUNNING BARI01.11.22
6060MM401646LATERZA MARIO ASD AMATORI PUTIGNANO01.11.27
6161TM932TOTARO VINCENZO ASD AMATORI PUTIGNANO01.11.32
6262TM10135LIUZZI PIETRO BA700 A.S.D. NADIR ON THE ROAD - PUT01.12.03
6363MM4512118DEMETRIO PIETRO BA555 AVIS PODISTICA MOLA01.12.08
6464PM268SAMELE GIANLUCA BA535 A.S. ATLETICA POLIGNANO01.12.18
6565MM4513160LAPADULA AURELIO BR113 ATLETICA CASALINI01.12.24
6666MM4017102RENNA MARIO BA550 AVIS IN CORSA CONVERSANO01.12.37
6767TM1163GALLUZZI PLACIDO BA535 A.S. ATLETICA POLIGNANO01.12.42
6868LIB4183LARICCHIUTA NICOLA PUGLIAVVENTURA01.12.45
6969MM4514116ROSELLI RAFFAELE BA554 FREE RUNNERS MOLFETTA01.13.11
7070TM12113GENCHI NICOLA BA553 ATLETICA ADELFIA01.13.19
7171LIB5201SCIACOVELLI BENEDETTO PUGLIAVVENTURA01.13.23
7272LIB6200CAZZORLA PIERPAOLO PUGLIAVVENTURA01.13.25
7373TM1391LIPPOLIS MAURIZIO BA550 AVIS IN CORSA CONVERSANO01.13.35
7474MM4515117CAMPANELLA PIETRO BA555 AVIS PODISTICA MOLA01.13.43
7575MM401835SPORTELLI ANGELO ASD AMATORI PUTIGNANO01.13.52
7676LIB7189SAVINO DONATO PUGLIAVVENTURA01.14.01
7777MM451636DEROBERTIS GIOVANNI ASD AMATORI PUTIGNANO01.14.08
7878MM55310PRIMAVERA VITO BA011 A.S. ATLETICA CASTELLANA01.14.10
7979MF4028ANDRESINI GIUSEPPINA BA011 A.S. ATLETICA CASTELLANA01.14.13
8080MM401976ACQUAVIVA MASSIMILIANO BA546 POD. VALLE D'ITRIA LOCOROTONDO01.14.16
8181MM451753PATRUNO FELICE BA097 SPORT CENTER A.S.D.01.14.19
8282MM5065SERPICO VITO BA005 AMATORI ATL. ACQUAVIVA01.14.19
8383MM402082DEFLORIO ARCANGELO BA550 AVIS IN CORSA CONVERSANO01.14.22
8484MM50718CONSOLE MAURO BA011 A.S. ATLETICA CASTELLANA01.14.24
8585MM50899PACE ANGELO BA550 AVIS IN CORSA CONVERSANO01.14.26
8686LIB8202CAMPANELLA GIOVANNI PUGLIAVVENTURA01.14.47
8787MM4518149GUARELLA CRISTIANO ACD SPES ALBEROBELLO01.15.09
8888MM509143MESTO NICOLA BA711 BIO AMBRA NEW AGE01.15.09
8989MM4021131DELFINE DOMENICO BA700 A.S.D. NADIR ON THE ROAD - PUT01.15.16
9090MM402273TANESE ANTONIO BA535 A.S. ATLETICA POLIGNANO01.15.42
9191LIB9194CAPRIO SAVERIO PUGLIAVVENTURA01.16.11
9292TM1480CANDELA MICHELE BA550 AVIS IN CORSA CONVERSANO01.16.23
9393MM5010146GREGORIO RUGGIERO BA711 BIO AMBRA NEW AGE01.16.28
9494MM4519130BITETTO COSIMO DAMIANO BA700 A.S.D. NADIR ON THE ROAD - PUT01.16.32
9595TM15133GALLO FRANCESCO BA700 A.S.D. NADIR ON THE ROAD - PUT01.16.34
9696MM501186IANNELLI PASQUALE BA550 AVIS IN CORSA CONVERSANO01.16.40
9797TM1633DALENA DOMENICO ASD AMATORI PUTIGNANO01.16.44
9898MM3510136MEZZAPESA NICOLA BA700 A.S.D. NADIR ON THE ROAD - PUT01.16.58
9999MM554164CARDONE ENRICO BR146 A.S.D. ATLETICA PEZZE DI GRECO01.17.08
100100MM402316TODISCO PIETRO BA011 A.S. ATLETICA CASTELLANA01.17.15
101101MM501224MARCHITELLI VITO SANTE ASD AMATORI PUTIGNANO01.17.19
102102MM452059CARONE PASQUALE BA535 A.S. ATLETICA POLIGNANO01.17.31
103103MF45144DELFINE MARCELLA ASD AMATORI PUTIGNANO01.17.39
104104MM651207LOPRIORE BONIFACIO ANGELO AVIS IN CORSA CONVERSANO01.17.49
105105MM452131ELEFANTE PASQUALE ASD AMATORI PUTIGNANO01.17.59
106106MM452237LOLIVA NICOLA ASD AMATORI PUTIGNANO01.18.09
107107LIB10208PUGLIESE DONATO PUGLIAVVENTURA01.18.19
108108LIB11196D'ADDARIO VITO PUGLIAVVENTURA01.18.29
109109MM452338MAGGIPINTO IGNAZIO ASD AMATORI PUTIGNANO01.18.39
110110MM55585GIGANTE RAFFAELE BA550 AVIS IN CORSA CONVERSANO01.19.09
111111TM1767PASCALICCHIO BARTOLO BA535 A.S. ATLETICA POLIGNANO01.19.19
112112LIB12187MASELLI PIETRO PUGLIAVVENTURA01.19.39
113113TM1860CHIARELLA VITANTONIO BA535 A.S. ATLETICA POLIGNANO01.20.08
114114MM501347CASSANO VITO BA052 BARI ROAD RUNNERS CLUB01.20.15
115115MM4524156FIORE ANTONIO BA719 RUNNERS DEL LEVANTE01.20.30
116116MM652108SPERTI COSIMO BA550 AVIS IN CORSA CONVERSANO01.21.08
117117MM60240SABATO FRANCESCO ASD AMATORI PUTIGNANO01.21.15
118118MM452596MOTTOLA FLAVIANO BA550 AVIS IN CORSA CONVERSANO01.21.34
119119MM5014101RAMUNNI BERNARDINO BA550 AVIS IN CORSA CONVERSANO01.21.34
120120MF403171ZOTTI KATIA A.S.D EVINRUDE MUGGIA (TS)01.21.46
121121MM4526172COMELLI FABIO A.S.D EVINRUDE MUGGIA (TS)01.21.47
122122MM5015128DE NICOLO' ANTONIO BA599 RUNNING PEOPLE NOICATTARO01.21.48
123123MM501615MANGHISI SAVERIO BA011 A.S. ATLETICA CASTELLANA01.21.57
124124MM5017138ANGELILLI COSTANTINO BA711 BIO AMBRA NEW AGE01.21.58
125125MF351107SOLFRIZZI RITA BA550 AVIS IN CORSA CONVERSANO01.22.03
126126LIB13180SPORTELLI ALBERTO PUGLIAVVENTURA01.22.28
127127MM351134DELIZIA GIANNI ASD AMATORI PUTIGNANO01.22.42
128128LIB14182LOVECE ANTONIO PUGLIAVVENTURA01.22.45
129129MM452787LABBE GIUSEPPE BA550 AVIS IN CORSA CONVERSANO01.23.05
130130LIB15195FANIGLIULO VITO PUGLIAVVENTURA01.23.20
131131LIB16188D'ACCOLTI FRANCESCO PUGLIAVVENTURA01.23.23
132132MM55648SERAFINO ANTONIO BA052 BARI ROAD RUNNERS CLUB01.23.28
133133MM501839VENTRELLA FRANCESCO ASD AMATORI PUTIGNANO01.23.30
134134TM1911SPINELLI VITO BA011 A.S. ATLETICA CASTELLANA01.23.49
135135TM20103RUOSPO VITO ANTONIO BA550 AVIS IN CORSA CONVERSANO01.24.13
136136MM55730MAGGIPINTO GIUSEPPE ASD AMATORI PUTIGNANO01.24.22
137137LIB17192GINNASIO CARMINE PUGLIAVVENTURA01.24.48
138138MM50197GIULIANI GIUSEPPE BA010 A.S.D. DOPOLAVORO FERROVIARIO01.24.50
139139MM65341BIANCO GIOVANNI ASD AMATORI PUTIGNANO01.25.44
140140LIB18184CISTULLI VITANTONIO PUGLIAVVENTURA01.25.49
141141MM60395LOVECCHIO LUIGI BA550 AVIS IN CORSA CONVERSANO01.26.00
142142MM502025MIRIZZI VITO ASD AMATORI PUTIGNANO01.26.19
143143MM452870SCAGLIUSI EUGENIO BA535 A.S. ATLETICA POLIGNANO01.26.29
144144MM4529141GIORGIO PIETRO BA711 BIO AMBRA NEW AGE01.26.34
145145MM351258CALESSE VITO BA535 A.S. ATLETICA POLIGNANO01.26.35
146146MM5021157RUTIGLIANO FRANCESCO BA719 RUNNERS DEL LEVANTE01.26.36
147147MF352210ROMANAZZI GIUSEPPINA BA557 ASD PINK PANTHER01.26.48
148148MM70192LORUSSO FRANCESCO BA550 AVIS IN CORSA CONVERSANO01.27.08
149149LIB19199COMETA COSIMO PUGLIAVVENTURA01.27.09
150150MM65479BIANCO GIOVANNI BA550 AVIS IN CORSA CONVERSANO01.27.10
151151MF4529LATTARULO MARIANNA BA011 A.S. ATLETICA CASTELLANA01.27.51
152152MM558104RUSSO MARCANTONIO BA550 AVIS IN CORSA CONVERSANO01.27.58
153153MM453077FERRARA ALBERTO BA546 POD. VALLE D'ITRIA LOCOROTONDO01.28.01
154154MF45343DELFINE PATRIZIA ASD AMATORI PUTIGNANO01.28.01
155155MF404150PICCIARELLI CARMELA ANNA MARIA ACD SPES ALBEROBELLO01.28.25
156156MM502229CHIAPPERINO RAFFAELE ASD AMATORI PUTIGNANO01.28.25
157157LIB20197SALATINO GIULIO PUGLIAVVENTURA01.28.49
158158LIB21190VALENZANO DOMENICO PUGLIAVVENTURA01.28.59
159159TM2190LATTARULO GIANPAOLO BA550 AVIS IN CORSA CONVERSANO01.29.04
160160LIB22181SANNA ANTONIO PUGLIAVVENTURA01.29.48
161161MM60488LACANDELA GIOVANNI BA550 AVIS IN CORSA CONVERSANO01.29.53
162162MM559110TROVISI MATTEO BA550 AVIS IN CORSA CONVERSANO01.30.17
163163MF454109TRAVERSA PIERPAOLA BA550 AVIS IN CORSA CONVERSANO01.31.23
164164MM551027SANSOLINO VITO ASD AMATORI PUTIGNANO01.32.44
165165MF45545MOREA ANTONIA MARIA ASD AMATORI PUTIGNANO01.32.44
166166MM502371SCAGLIUSI FRANCESCO BA535 A.S. ATLETICA POLIGNANO01.32.46
167167MM60575ZUPO ANTONIO BA535 A.S. ATLETICA POLIGNANO01.33.38
168168MM5511106SCISCI GIOVANNI BA550 AVIS IN CORSA CONVERSANO01.33.50
169169TM2294LOSAVIO FRANCESCO BA550 AVIS IN CORSA CONVERSANO01.33.51
170170MF45621PRIMAVERA ANGELA BA011 A.S. ATLETICA CASTELLANA01.33.51
171171MF405154SCALISI ELENA ACD SPES ALBEROBELLO01.34.55
172172MF406153SABATELLI ANGELA ACD SPES ALBEROBELLO01.34.56
173173LIB23191LIPPOLIS GIUSEPPE PUGLIAVVENTURA01.35.32
174174LIB24186VALENZANO VITO PUGLIAVVENTURA01.35.34
175175MM502423RICCHI FRANCESCO ASD AMATORI PUTIGNANO01.37.34
176176LIB25193PUTIGNANO UGO PUGLIAVVENTURA01.39.04
177177MF50119CONTENTO BIBIANA BA011 A.S. ATLETICA CASTELLANA01.40.31
178178MF50212DEROBERTIS MARIA BA011 A.S. ATLETICA CASTELLANA01.40.31
179179MM502522DELFINE GIUSEPPE BA011 A.S. ATLETICA CASTELLANA01.40.31
180180MM502620LUISI PASQUALE BA011 A.S. ATLETICA CASTELLANA01.40.57
181181MM70257BUZZOTTA GIOVANNI BA535 A.S. ATLETICA POLIGNANO01.43.20
182182MF407170MIRAGLIA ANGELA ACD SPES ALBEROBELLO01.43.40
183183MM80142MIRIZZI VINCENZO ASD AMATORI PUTIGNANOnull
184184MM606173BUONSANTE MARIO ASD AMATORI PUTIGNANOnull
185185MM5027126CAPORASO SAVERIO ACD SPES ALBEROBELLOnull
186186MM4024148GILIBERTI LUIGI ACD SPES ALBEROBELLOnull
187187MM4531155TRITTO CARLO ACD SPES ALBEROBELLOnull
188188MM4025152RINALDI LORENZO ACD SPES ALBEROBELLOnull
189189MM4026169SPADA VITO TA408 A.S POD.TARAS SHOPPING SPORTnull
Righe per pagina::     TUTTE    |   30   |   50   |   100   Pagina:   | 1 | | 2 | | 3 | | 4 |